Weather History for KVCB - April, 2014

Change the Weather History Date:

Thursday, April 24, 2014

  Actual Average Record
Temperature  
Mean Temperature 60 °F -  
Max Temperature 70 °F 72 °F 91 °F (1966)
Min Temperature 50 °F 44 °F 32 °F (1964)
Degree Days  
Heating Degree Days 6    
Growing Degree Days 10 (Base 50)    
Moisture  
Dew Point 49 °F    
Average Humidity 69    
Maximum Humidity 83    
Minimum Humidity 43    
Precipitation  
Precipitation 0.00 in - - ()
Sea Level Pressure  
Sea Level Pressure 30.02 in    
Wind  
Wind Speed 5 mph (SW)    
Max Wind Speed 24 mph    
Max Gust Speed 23 mph    
Visibility 10 miles    
Events      
Averages and records for this station are not official NWS values.
T = Trace of Precipitation, MM = Missing Value Source: NWS Daily Summary

Daily Weather History Graph

Daily Weather History Graph

Search for Another Location

Airport or City:

Trip Planner

Search our weather history database for the weather conditions in past years. The results will help you decide how hot, cold, wet, or windy it might be!

Date:

Astronomy

Apr. 24, 2014 Rise Set
Actual Time 6:19 AM PDT 7:52 PM PDT
Civil Twilight 5:51 AM PDT 8:20 PM PDT
Nautical Twilight 5:17 AM PDT 8:54 PM PDT
Astronomical Twilight 4:42 AM PDT 9:30 PM PDT
Moon 3:30 AM PDT (4/24) 3:18 PM PDT (4/24)
Length of Visible Light 14h 29m
Length of Day
13h 33m
Waning Crescent, 23% of the Moon is Illuminated
Apr 24
Waning Crescent
Apr 28
New
May 6
First Quarter
May 14
Full
May 21
Last Quarter

Hourly Weather History & Observations

Time (PDT) Temp. Dew Point Humidity Pressure Visibility Wind Dir Wind Speed Gust Speed Precip Events Conditions
12:53 AM 52.0 °F 44.1 °F 74% 30.06 in 10.0 mi Calm Calm - N/A   Clear
1:53 AM 51.1 °F 46.0 °F 83% 30.05 in 10.0 mi Calm Calm - N/A   Clear
2:53 AM 50.0 °F 45.0 °F 83% 30.05 in 10.0 mi Calm Calm - N/A   Clear
3:53 AM 51.1 °F 45.0 °F 80% 30.04 in 10.0 mi SW 3.5 mph - N/A   Clear
4:53 AM 52.0 °F 46.0 °F 80% 30.03 in 10.0 mi WSW 4.6 mph - N/A   Partly Cloudy
5:53 AM 55.0 °F 45.0 °F 69% 30.04 in 10.0 mi SSW 5.8 mph - N/A   Clear
6:53 AM 52.0 °F 46.0 °F 80% 30.05 in 10.0 mi Calm Calm - N/A   Clear
7:53 AM 54.0 °F 46.9 °F 77% 30.06 in 10.0 mi Calm Calm - N/A   Partly Cloudy
8:53 AM 60.1 °F 46.9 °F 62% 30.07 in 10.0 mi South 6.9 mph - N/A   Mostly Cloudy
9:53 AM 66.0 °F 43.0 °F 43% 30.08 in 10.0 mi WNW 6.9 mph - N/A   Scattered Clouds
10:53 AM 63.0 °F 46.9 °F 56% 30.08 in 10.0 mi SW 12.7 mph 20.7 mph N/A   Clear
11:53 AM 64.9 °F 48.0 °F 54% 30.08 in 10.0 mi South 10.4 mph - N/A   Clear
12:53 PM 66.0 °F 48.0 °F 52% 30.05 in 10.0 mi SW 10.4 mph - N/A   Clear
1:53 PM 69.1 °F 51.1 °F 53% 30.03 in 10.0 mi SSW 9.2 mph 20.7 mph N/A   Clear
2:53 PM 69.1 °F 52.0 °F 54% 30.01 in 10.0 mi SW 10.4 mph 23.0 mph N/A   Clear
3:53 PM 68.0 °F 53.1 °F 59% 29.99 in 10.0 mi WSW 12.7 mph 21.9 mph N/A   Scattered Clouds
4:53 PM 66.0 °F 53.1 °F 63% 29.98 in 10.0 mi WSW 24.2 mph - N/A   Clear
5:53 PM 63.0 °F 52.0 °F 67% 29.98 in 10.0 mi WSW 16.1 mph - N/A   Scattered Clouds
6:53 PM 62.1 °F 52.0 °F 70% 29.95 in 10.0 mi WSW 13.8 mph 21.9 mph N/A   Mostly Cloudy
7:53 PM 61.0 °F 51.1 °F 70% 29.96 in 10.0 mi West 11.5 mph - N/A   Overcast
8:53 PM 60.1 °F 51.1 °F 72% 29.96 in 10.0 mi Variable 3.5 mph - N/A   Partly Cloudy
9:53 PM 59.0 °F 51.1 °F 75% 29.97 in 10.0 mi Calm Calm - N/A   Mostly Cloudy
10:11 PM 59.0 °F 52.0 °F 78% 29.97 in 10.0 mi Variable 6.9 mph - N/A   Overcast
10:53 PM 57.9 °F 52.0 °F 81% 29.95 in 10.0 mi SW 11.5 mph - N/A   Overcast
11:53 PM 57.9 °F 52.0 °F 81% 29.95 in 10.0 mi WSW 12.7 mph - N/A   Overcast